Theta_e
292 293 292 293 292 292 291 291 291 290 291 290 290 290 290 290 291 291 291 291 291 291 292 292 292 292 292 293 293 293 293 293 293 293 293 294 295 297 304 306 307 308 309 311 313 315 317 318 319 320 321 321 321 321 322 322 323 324 325 326 327 328 327 327 329 332 335 339 340 340 342 342 341 344 346 346 346 346 345 345 345 345 344 343 343
292 291 291 291 291 291 291 291 290 290 290 290 291 290 290 290 290 290 291 291 291 291 292 291 291 292 291 292 292 292 292 292 292 292 293 293 294 295 301 303 305 306 307 308 311 313 315 316 317 318 319 320 320 321 321 322 322 323 323 324 325 325 327 327 328 328 331 336 338 339 340 341 340 340 343 345 345 345 345 345 345 345 344 343 342
291 291 291 290 291 291 290 290 289 289 289 289 290 291 290 290 289 290 290 290 290 290 290 290 290 290 291 291 291 291 291 292 292 292 292 293 293 293 295 301 303 305 306 307 309 310 312 313 315 316 316 317 318 319 320 320 320 320 320 321 322 323 324 326 328 328 328 329 334 338 339 340 341 342 340 341 344 344 344 344 345 345 344 343 343
291 291 291 290 290 290 290 289 289 289 289 289 290 290 290 289 290 291 290 289 290 289 290 290 289 289 290 290 291 291 291 291 291 291 291 292 292 292 293 295 301 303 305 307 308 309 310 311 312 313 314 316 317 318 319 319 319 320 319 320 321 322 322 323 323 325 327 329 329 331 335 338 340 341 341 341 341 342 343 343 344 344 344 344 343
291 292 293 290 290 290 289 290 289 289 289 290 289 288 288 288 289 290 289 289 289 289 290 289 288 288 289 289 290 290 290 290 290 290 290 291 291 291 292 294 294 299 302 305 307 307 308 309 310 311 313 314 315 315 317 317 318 318 319 320 320 322 322 323 323 323 324 327 329 329 332 336 338 339 340 340 340 340 340 342 343 343 343 343 342
291 290 290 290 290 290 289 288 288 289 289 288 287 288 288 288 289 288 291 289 288 288 288 288 288 288 288 288 289 289 289 289 289 290 290 290 290 291 292 292 293 294 296 302 305 306 307 308 309 310 311 311 312 313 315 316 317 318 319 319 320 322 322 322 323 324 325 325 326 328 329 332 335 338 341 340 339 341 340 339 341 343 343 343 342
291 290 289 289 289 288 288 288 289 288 287 288 287 287 287 287 289 287 287 287 287 288 288 287 287 287 287 288 288 288 289 289 289 289 289 290 290 291 291 292 292 293 295 294 298 302 306 308 308 309 309 310 310 311 313 315 316 317 317 318 319 319 320 320 320 321 321 323 325 325 326 327 330 333 338 341 341 341 342 341 339 338 341 342 341
290 290 289 288 288 288 288 289 288 288 287 288 288 286 287 288 288 287 286 286 287 286 287 286 286 287 287 287 288 289 288 288 288 288 289 289 290 290 291 291 292 292 296 295 295 297 303 306 307 308 308 308 308 309 312 313 314 315 316 317 318 318 319 319 319 320 321 321 320 322 324 326 327 327 331 336 339 340 341 340 340 339 339 339 341
290 289 289 289 287 288 287 288 288 287 287 286 286 288 286 288 286 288 286 285 285 285 286 286 286 287 287 287 288 288 287 287 288 288 290 289 289 290 291 291 293 297 294 294 295 296 299 304 306 307 308 308 307 307 309 312 312 314 315 316 317 318 318 318 319 320 320 320 320 321 321 322 325 327 327 329 334 337 340 340 340 339 339 339 338
289 289 288 288 288 288 288 288 288 287 286 285 286 286 286 286 285 286 286 285 284 284 285 285 287 287 287 287 287 287 287 287 288 290 288 288 289 289 290 291 292 293 293 294 294 295 296 299 303 305 306 307 306 307 308 308 309 312 314 316 315 314 314 314 315 317 320 321 321 320 319 320 323 324 326 327 329 333 336 339 340 339 338 340 339
289 288 288 288 287 287 287 288 287 286 286 285 285 287 286 285 285 285 286 286 285 285 285 286 286 286 286 286 286 287 287 287 288 287 287 288 289 292 293 292 293 293 294 294 294 294 295 296 295 295 296 302 306 306 305 305 308 311 311 312 312 312 313 314 314 315 316 317 318 318 318 317 317 321 324 325 326 328 334 335 338 339 340 340 338
288 288 288 287 286 287 287 287 286 286 285 285 284 284 284 284 285 285 284 285 287 285 285 285 284 284 285 286 286 286 285 286 286 286 287 286 287 289 289 291 292 292 292 293 294 293 293 293 294 292 294 299 303 302 302 305 306 306 308 309 309 311 314 314 314 314 314 316 316 316 317 318 318 319 319 323 325 326 328 333 334 339 340 339 339
288 287 287 288 287 286 286 286 286 287 286 285 285 285 285 285 285 285 285 284 284 284 284 284 283 283 284 283 284 284 286 286 285 286 286 287 287 287 288 290 290 290 290 290 288 288 289 290 291 293 293 292 293 299 303 303 302 303 305 306 307 310 312 311 311 311 311 313 313 314 315 316 318 319 320 322 323 326 326 327 333 335 339 340 339
288 287 287 287 286 285 286 286 286 286 286 286 285 288 285 284 284 283 284 284 283 284 285 284 281 280 280 281 282 282 284 284 284 285 285 285 286 285 285 285 285 285 286 287 287 288 289 291 291 290 290 291 291 294 294 294 295 300 303 304 306 308 308 308 309 310 311 312 313 313 314 316 317 318 320 321 321 321 325 328 328 332 336 338 339
288 287 287 286 286 286 286 285 285 286 285 284 284 283 284 283 283 283 282 282 284 285 284 283 280 281 281 279 278 279 282 281 282 284 286 286 285 284 285 285 286 286 287 287 287 287 288 289 289 290 291 291 292 292 291 293 293 297 300 302 303 304 306 307 308 309 310 310 312 313 314 314 315 316 317 318 319 320 320 323 328 330 332 336 338
287 287 287 286 286 285 285 284 285 285 284 283 283 282 283 283 283 284 283 280 280 280 284 283 282 281 277 278 278 278 276 277 280 284 285 284 283 284 285 286 286 286 285 285 285 286 287 289 290 290 291 292 291 290 292 291 294 295 295 298 301 302 304 305 307 307 308 310 310 311 312 313 315 316 316 316 317 318 319 321 323 327 331 333 334
287 287 287 286 285 285 284 284 284 284 284 283 282 283 283 282 283 283 282 281 280 280 282 283 282 283 280 278 276 276 275 278 281 281 281 282 283 284 285 285 284 284 284 285 286 287 288 288 288 289 290 290 290 290 290 290 291 293 293 293 296 299 300 303 305 306 308 309 310 310 310 310 312 313 314 315 316 317 318 319 321 322 325 329 333
286 286 286 286 285 285 284 284 283 283 284 283 283 282 282 282 282 282 281 282 281 281 279 282 283 283 283 281 281 276 277 279 279 276 281 283 283 283 282 282 283 284 285 285 285 286 287 288 288 289 289 289 289 289 289 290 291 290 289 290 295 297 298 300 303 306 308 309 308 309 309 309 310 311 313 314 315 317 318 318 319 319 321 324 330
286 286 286 286 285 285 284 284 284 283 284 283 282 282 282 282 283 282 282 285 281 280 279 280 280 281 282 282 282 282 281 278 276 278 275 279 279 281 282 282 283 284 284 284 285 286 286 286 286 286 286 287 287 288 288 287 289 290 292 294 296 296 297 298 300 302 305 306 307 307 308 309 309 309 310 311 312 314 317 317 316 317 318 321 324
286 285 285 285 285 284 284 283 283 283 283 282 282 282 283 283 283 282 282 282 281 280 279 280 279 279 282 280 280 281 280 279 279 277 277 275 276 280 281 282 282 282 283 283 283 283 283 284 284 284 285 285 286 286 286 286 286 287 288 293 295 296 297 298 298 298 300 303 305 307 308 308 309 310 310 310 311 312 314 315 316 317 318 320 323
285 285 284 284 285 284 283 283 283 282 284 283 282 282 281 281 281 281 281 281 280 280 280 279 278 278 278 278 278 278 278 278 279 278 276 275 275 276 277 279 281 281 282 282 282 283 283 283 284 285 285 285 285 285 285 285 286 286 290 293 293 295 296 297 297 298 298 299 302 304 307 309 309 310 311 310 310 312 314 315 316 317 317 317 320
284 284 284 284 283 283 283 282 282 282 283 281 281 281 281 281 281 280 280 280 280 280 280 279 280 279 279 279 278 277 277 277 276 276 277 277 275 275 277 276 276 278 281 282 282 282 282 283 283 283 283 283 284 284 284 285 285 287 289 292 293 294 295 296 297 298 298 298 299 301 303 305 307 309 309 310 312 311 311 313 313 315 317 316 315
284 283 283 283 283 283 282 282 282 283 282 281 281 281 280 280 281 280 280 280 280 280 281 281 280 279 279 279 277 278 277 276 276 277 276 275 275 276 277 277 277 276 278 280 282 282 282 282 282 282 282 283 283 284 284 284 287 288 291 291 292 293 295 296 296 297 297 297 298 299 299 301 303 305 307 309 310 312 312 311 311 311 313 317 317
283 282 282 282 282 282 282 281 281 281 281 281 280 280 280 280 280 279 279 279 279 279 278 278 278 278 278 278 278 279 278 277 278 278 277 276 276 275 276 277 277 277 279 280 281 281 281 281 281 282 283 283 283 283 284 285 285 289 289 290 291 292 294 295 295 295 296 296 297 298 299 300 300 301 303 306 308 310 311 312 312 312 312 314 316
282 282 282 282 282 281 281 281 280 281 280 280 280 280 280 279 279 278 278 278 278 278 277 277 278 277 277 277 278 278 278 278 278 278 277 277 276 275 276 277 275 276 277 278 277 279 280 281 281 281 281 282 283 284 283 284 284 287 289 289 290 291 291 292 293 293 294 294 295 296 297 299 300 301 303 304 306 307 308 309 312 313 313 314 315
282 282 282 282 282 281 281 280 280 280 280 279 279 279 279 278 278 278 277 277 277 277 277 277 277 277 277 277 277 277 277 278 277 278 277 276 276 275 275 276 276 275 277 277 278 277 277 279 279 281 280 281 282 282 282 283 284 287 288 287 287 288 289 290 292 292 292 293 294 294 295 296 299 300 301 305 306 307 308 308 311 313 313 314 315
282 282 282 282 281 281 280 280 279 279 279 279 280 279 279 279 278 277 277 277 277 277 277 276 278 277 277 277 277 277 276 277 277 277 278 277 277 276 275 273 274 275 275 276 277 277 277 279 280 280 280 281 281 281 282 282 284 287 287 284 283 285 287 288 290 291 290 291 291 293 294 294 296 298 299 300 303 304 306 308 310 311 313 314 313
281 281 281 281 280 280 280 279 279 278 278 278 278 278 278 278 277 277 276 279 277 276 277 276 277 276 276 276 276 276 277 277 277 277 277 277 277 277 276 275 273 271 274 273 275 276 278 277 279 279 279 280 281 281 283 284 282 285 285 282 282 282 285 287 288 289 290 291 292 293 293 294 295 295 296 296 297 298 300 302 303 304 305 306 306
281 281 280 280 280 279 279 278 278 278 278 278 278 277 277 278 277 276 276 276 277 276 276 276 276 276 276 276 276 276 276 276 277 278 277 277 277 276 276 275 275 273 271 271 273 274 276 277 276 277 279 280 280 281 281 280 282 283 281 281 281 281 283 286 287 290 291 292 292 292 292 292 293 293 293 294 295 296 298 299 299 300 301 304 306
281 281 280 279 279 279 278 278 277 277 277 277 277 277 277 276 276 276 276 276 276 276 276 276 276 276 276 276 276 276 276 276 276 276 276 276 276 276 276 276 276 274 273 271 272 275 275 277 278 277 279 278 280 280 280 280 282 282 280 280 280 280 284 285 286 288 289 290 290 291 291 291 292 292 293 294 294 296 298 298 299 299 301 302 306
280 279 278 278 278 277 277 277 277 277 277 277 277 276 276 276 275 276 275 275 275 275 275 276 276 276 275 275 275 275 275 275 275 275 276 276 276 276 275 276 276 275 274 274 271 275 277 275 277 278 278 278 278 278 278 278 280 280 279 279 279 281 282 282 284 286 288 288 289 290 290 290 290 290 291 291 293 294 295 295 296 298 300 301 303
279 279 278 278 277 277 277 277 276 276 276 276 276 276 275 275 275 275 275 275 275 275 274 275 276 275 274 274 275 274 274 274 274 275 274 275 275 275 275 275 275 275 275 274 272 272 276 276 276 276 277 277 277 276 276 276 278 279 278 278 279 281 279 279 281 283 285 287 288 288 289 289 289 290 290 290 291 293 294 294 294 297 299 301 303
278 278 277 277 277 277 276 276 276 276 275 275 276 275 275 274 274 275 274 274 274 274 274 274 274 274 274 274 274 273 274 273 273 274 274 274 274 274 274 274 273 274 273 272 271 271 274 276 275 275 276 275 274 275 274 275 275 276 278 277 277 276 277 278 279 282 284 285 286 287 288 288 289 289 289 290 291 292 292 294 294 296 298 300 301
278 277 277 277 276 276 276 276 275 275 275 275 275 275 274 274 274 274 274 274 274 273 273 273 273 273 273 273 273 273 273 272 272 272 272 272 272 272 272 272 272 272 273 272 271 271 270 273 273 274 273 274 272 274 273 274 274 275 274 275 276 277 277 278 278 278 281 283 285 286 287 288 288 289 289 290 291 292 293 294 294 294 296 297 298
277 277 276 276 276 276 275 275 275 275 274 274 274 274 274 274 273 273 274 273 273 272 272 272 272 272 272 272 271 272 272 271 271 271 271 271 271 271 271 271 271 271 272 272 271 269 269 270 271 271 271 272 272 272 273 274 274 274 273 274 275 275 277 276 276 277 281 283 285 286 286 287 288 288 289 290 291 291 292 293 294 294 295 296 297
276 276 276 276 275 275 275 274 274 274 274 274 274 274 273 273 273 273 273 272 272 272 272 271 271 271 270 270 270 271 271 270 270 270 270 270 270 270 270 270 271 270 271 271 271 270 269 268 270 270 271 271 271 273 273 274 273 273 273 273 274 275 275 276 276 276 279 282 284 285 286 286 287 288 289 289 290 291 292 292 293 294 294 295 295
275 275 275 275 275 274 274 274 273 273 273 273 273 273 272 272 272 272 272 272 271 271 271 271 271 271 270 270 270 270 270 269 269 269 270 269 270 270 270 270 270 271 271 271 271 271 269 269 269 271 272 272 272 272 273 272 272 273 273 273 273 274 274 275 276 277 280 282 283 283 284 285 286 287 288 289 290 291 292 292 293 293 293 294 294
274 275 274 274 274 274 273 273 273 273 273 273 272 272 271 271 271 271 271 271 271 270 270 270 270 270 270 270 270 270 270 269 269 270 270 269 270 270 270 270 271 271 271 271 271 271 270 270 270 269 271 271 271 272 272 272 271 271 272 273 273 274 274 274 275 276 277 277 277 278 280 282 283 285 285 287 288 290 291 292 293 293 293 293 293
274 273 273 273 273 273 272 272 272 272 272 271 270 270 270 269 270 270 270 270 270 270 270 270 270 270 270 270 270 270 270 270 270 270 270 271 271 271 271 271 271 271 271 271 271 270 270 270 270 271 270 272 272 270 273 274 273 272 271 271 271 273 274 274 273 275 276 277 279 282 281 281 282 282 284 286 288 289 290 291 291 292 291 292 293
273 273 272 272 272 272 271 271 271 271 270 270 269 269 269 269 269 270 270 270 270 270 270 270 270 270 271 271 271 272 272 271 271 271 272 271 272 272 272 272 272 272 271 271 270 270 270 270 270 270 271 271 271 273 273 273 272 272 273 272 270 271 272 274 274 274 275 276 276 276 280 281 281 283 284 285 287 289 290 290 291 291 291 292 293
273 272 272 272 271 271 270 270 270 270 270 270 269 269 268 269 269 269 269 269 270 269 270 270 271 272 272 273 273 273 273 275 276 276 276 276 274 273 274 275 274 274 272 271 271 271 270 270 270 271 270 270 271 271 271 271 271 270 273 273 272 272 273 273 274 275 275 275 276 276 277 278 278 279 281 282 284 286 284 285 287 289 291 292 293
272 271 271 271 270 270 269 269 270 270 270 270 272 274 272 269 269 269 269 270 270 270 270 271 272 273 273 273 274 275 276 276 277 277 278 278 278 277 275 275 274 274 273 272 272 271 270 269 269 270 269 269 271 271 271 272 273 273 273 273 272 273 273 273 274 275 277 276 276 276 277 279 279 279 281 281 281 283 284 285 285 286 288 291 292
270 270 270 270 269 269 269 269 269 269 270 270 274 275 276 275 271 269 269 270 270 271 272 272 272 273 274 274 274 274 275 275 275 276 277 277 278 278 278 278 278 276 274 273 273 273 272 271 272 272 271 271 272 273 273 273 274 273 273 273 273 273 272 271 270 274 278 277 277 276 277 280 279 277 278 279 281 282 283 284 286 287 287 290 292
269 269 269 269 269 269 269 269 269 269 269 272 275 276 277 277 275 270 271 271 272 273 273 273 273 273 273 273 273 273 273 273 273 273 275 276 277 278 278 278 279 279 279 276 274 273 273 272 272 272 272 271 272 273 273 273 273 273 273 273 273 272 271 271 272 272 277 280 277 276 275 278 278 277 277 279 281 282 283 284 286 287 289 289 290
268 268 269 269 269 269 269 269 269 269 269 274 276 277 277 277 278 276 274 274 273 273 274 274 273 273 273 272 272 272 273 275 274 274 274 274 276 277 278 278 278 279 279 279 280 276 275 274 273 272 273 273 272 273 273 273 274 273 273 272 272 272 272 271 272 272 275 278 276 274 273 275 276 276 277 279 280 280 281 284 286 287 288 290 292
268 269 269 269 269 269 269 269 269 270 269 273 276 277 277 277 278 278 275 274 274 274 274 274 273 272 272 271 271 272 273 273 274 274 274 274 274 274 274 275 275 276 278 278 279 279 278 275 274 272 274 274 273 273 274 275 274 272 272 272 272 271 271 271 273 273 275 277 274 274 272 274 276 276 275 278 280 280 281 284 287 288 290 291 293
268 268 267 267 268 268 268 269 269 269 269 274 276 276 276 277 277 277 275 274 274 273 273 272 272 272 272 272 272 272 273 273 274 275 274 275 275 274 274 274 274 275 275 275 275 276 276 275 275 274 275 275 275 275 275 275 275 274 274 273 273 273 273 274 274 274 275 276 276 275 271 274 277 276 276 278 279 280 282 286 288 290 291 292 293
267 267 268 268 267 268 269 269 269 268 269 274 275 275 276 277 277 275 274 274 272 272 271 272 272 273 273 273 273 273 273 273 275 277 277 275 274 273 273 274 274 274 274 277 279 279 278 277 276 276 276 276 278 277 277 276 276 275 275 275 275 274 273 272 271 273 273 276 277 275 273 274 277 276 276 279 281 281 283 284 286 288 291 292 293
267 267 267 267 268 268 269 268 268 268 268 272 275 275 276 277 276 274 273 272 272 272 272 272 272 272 273 273 273 273 273 273 275 277 277 277 274 273 273 273 273 273 274 276 278 279 279 279 280 280 280 281 281 282 282 282 280 279 277 275 273 273 271 270 271 272 273 275 277 277 275 274 276 277 277 279 280 281 281 282 284 287 290 292 293
267 267 268 268 268 268 268 268 268 267 267 270 274 275 275 276 276 273 273 272 271 271 271 272 272 272 273 275 275 274 273 273 275 276 277 276 273 273 273 273 273 272 273 274 274 274 277 278 278 279 279 280 280 280 280 280 280 279 275 273 274 275 273 273 272 273 275 276 277 279 276 275 277 278 277 279 280 281 281 282 283 285 288 290 292
267 268 268 267 267 267 268 267 269 267 267 269 273 274 275 276 275 273 272 270 270 271 271 271 272 272 273 274 275 274 274 274 276 276 277 276 274 274 273 272 271 271 271 272 271 271 273 273 273 273 273 274 273 272 273 277 278 277 275 275 275 274 273 273 273 273 271 273 277 279 274 274 275 276 277 276 276 280 283 283 284 286 287 288 288
Wind_Speed
6 5 5 5 4 4 4 4 4 4 4 4 4 3 3 2 3 3 3 4 5 5 5 6 6 6 5 6 6 6 6 6 5 6 5 5 5 6 11 14 16 18 18 18 18 18 18 18 18 17 17 17 16 16 16 16 16 16 16 16 16 17 17 17 18 19 17 15 16 16 17 21 20 18 17 17 16 16 18 20 19 21 22 26 23
6 5 6 5 5 4 4 4 4 3 4 4 2 2 2 2 3 3 4 5 6 6 6 6 6 6 6 7 7 7 6 7 7 6 6 6 6 7 10 12 15 18 18 18 18 17 17 17 16 16 17 17 17 16 16 16 16 15 15 16 16 16 17 18 18 19 18 17 16 16 17 16 19 23 19 18 18 17 18 19 18 20 20 21 23
6 5 5 6 5 5 5 4 4 3 3 3 1 2 2 3 3 4 5 5 5 5 5 6 6 7 7 7 7 7 7 6 7 6 7 6 7 7 9 12 14 16 17 17 17 16 16 16 16 16 16 17 17 17 17 17 16 16 16 16 16 16 16 17 18 18 20 20 19 17 17 16 16 18 23 21 18 18 18 19 18 19 19 20 26
5 5 6 6 5 6 4 5 3 3 2 2 3 3 3 3 3 3 3 3 4 5 4 5 6 6 6 7 7 7 7 7 7 7 6 6 6 7 7 8 10 14 15 16 17 16 16 16 16 16 16 16 16 17 17 17 17 17 17 17 16 16 15 16 17 18 19 21 21 20 19 18 17 17 18 20 21 20 19 20 20 20 20 22 21
6 5 5 6 5 5 5 4 3 3 3 3 4 3 3 4 3 3 4 3 3 4 4 4 5 6 6 6 6 7 7 7 7 7 6 5 5 5 6 7 8 10 11 12 14 15 16 16 16 16 16 15 16 17 17 18 18 18 18 17 17 16 16 16 16 16 18 20 21 21 20 19 19 17 18 20 18 21 22 20 20 21 21 21 20
6 5 5 6 5 5 6 4 3 3 3 3 3 2 2 3 2 3 3 4 4 4 5 6 6 5 5 6 6 7 7 8 7 7 6 5 4 4 6 6 7 7 7 10 11 12 15 16 16 16 15 15 15 17 17 18 18 18 18 18 17 17 17 17 16 16 17 17 19 21 22 21 20 19 17 17 19 19 21 22 21 21 22 22 22
5 6 6 5 6 6 6 4 4 3 3 1 2 2 2 2 2 3 3 3 3 3 4 5 6 7 7 6 7 7 7 8 8 7 6 5 4 4 5 6 6 6 6 6 7 10 11 14 15 15 15 15 15 17 17 18 18 18 18 18 17 17 17 17 17 18 18 17 17 18 20 22 22 23 19 17 17 19 19 21 24 25 22 22 24
5 5 6 5 6 7 6 4 4 3 2 1 1 2 1 2 2 3 4 3 5 5 5 6 6 7 6 7 7 7 7 7 8 8 6 5 5 5 5 5 5 6 5 6 6 5 9 11 14 16 15 15 15 17 17 17 18 19 18 18 18 18 18 19 19 18 18 18 18 18 19 20 22 23 23 20 19 18 20 21 21 23 27 24 23
5 5 6 6 6 7 6 5 4 4 3 2 1 1 2 2 3 3 4 3 3 5 5 5 7 7 7 7 7 7 8 8 8 7 5 5 5 4 5 5 5 6 5 5 5 5 7 10 13 15 14 13 15 16 16 17 19 18 18 18 18 18 19 20 20 19 17 16 16 17 17 18 20 22 24 24 21 20 18 20 20 21 23 25 26
5 5 6 5 6 6 6 5 5 4 4 3 1 0 2 4 2 1 2 2 3 4 6 6 6 8 8 9 9 7 8 9 8 7 6 6 5 5 6 6 6 6 5 4 4 5 4 7 11 11 10 9 14 15 15 17 19 18 17 17 18 20 21 22 22 22 20 17 16 18 20 20 20 20 21 23 24 21 22 19 19 20 22 21 24
6 5 6 6 6 6 6 5 5 5 4 3 2 2 3 3 2 0 0 0 2 3 4 6 6 7 9 10 8 9 9 9 8 6 6 5 5 5 4 6 5 5 5 4 4 4 4 4 5 5 6 10 12 13 16 19 17 15 16 18 20 21 21 21 22 22 21 21 20 21 21 21 23 23 21 21 23 25 21 22 20 21 19 20 25
6 6 6 6 6 7 6 5 5 5 4 4 4 3 3 2 1 1 2 0 0 2 3 5 6 7 8 8 7 9 10 10 7 5 5 4 4 4 5 5 5 4 4 3 3 3 3 4 4 6 5 6 8 11 16 14 12 15 17 19 21 21 20 20 21 22 23 22 22 22 22 23 24 23 23 22 22 23 25 23 23 21 19 19 21
7 7 7 7 6 6 6 4 5 5 5 5 5 5 3 3 2 1 1 3 1 1 3 5 6 6 4 6 7 6 10 9 5 5 3 4 3 6 6 6 5 5 4 4 4 4 4 5 5 4 6 6 7 9 9 8 10 15 18 20 21 19 19 20 22 23 23 24 23 23 22 22 22 23 23 23 24 23 23 26 25 23 22 21 22
7 7 7 7 7 6 6 6 6 6 5 5 5 4 4 3 3 2 1 1 1 2 3 5 5 7 12 13 4 4 6 2 2 3 8 9 9 7 6 5 6 4 3 3 4 4 5 5 4 6 6 6 7 6 3 4 6 12 18 20 18 18 20 21 21 21 22 22 22 23 23 22 22 22 22 24 24 25 26 25 26 27 27 24 22
8 8 7 7 7 7 7 6 6 6 6 5 4 4 4 4 3 2 1 1 1 1 2 4 2 4 5 4 9 12 2 5 3 10 11 10 6 5 4 4 6 4 3 4 4 4 4 5 6 6 6 7 7 5 5 5 7 12 15 16 16 19 20 20 20 21 22 22 22 22 23 23 23 23 23 24 25 26 26 26 26 28 28 26 25
9 8 7 7 8 8 6 6 6 6 6 5 4 4 4 3 3 2 2 2 2 2 2 3 3 6 6 2 5 3 11 3 13 9 7 7 3 8 7 7 6 6 6 6 5 5 5 5 5 6 6 7 6 6 6 5 9 12 11 9 11 17 18 20 22 24 24 23 22 22 22 23 24 24 24 24 24 26 27 27 28 27 29 27 25
8 8 8 8 7 7 7 6 6 5 5 5 4 5 4 3 4 3 3 1 1 0 1 3 3 2 1 3 4 3 2 6 12 16 3 5 6 8 7 5 5 6 5 5 4 5 6 5 6 5 6 6 6 6 7 8 8 4 4 7 8 13 20 24 25 24 23 23 23 23 23 24 24 24 25 27 26 25 26 28 28 29 29 29 28
8 8 7 7 7 7 6 6 5 6 6 5 4 4 4 4 4 3 2 2 2 1 2 1 2 1 1 4 4 4 7 7 6 8 5 13 12 6 4 4 3 4 4 5 5 6 4 5 4 6 6 7 8 8 7 5 3 4 6 8 16 21 22 23 23 22 22 23 24 24 25 24 24 25 26 26 27 27 25 26 28 28 29 31 29
7 7 7 7 7 7 7 6 6 5 4 5 5 5 5 4 3 3 3 3 3 2 3 3 3 1 2 1 2 3 2 2 5 7 14 1 2 8 6 5 6 6 6 4 5 6 5 4 5 6 6 7 7 6 5 6 8 10 13 14 18 21 21 21 20 22 23 25 25 25 25 26 26 27 27 28 28 28 28 27 27 29 29 29 32
8 7 7 7 7 6 6 5 5 5 5 5 5 4 5 3 3 3 3 3 3 3 2 0 1 2 1 2 3 3 4 4 4 5 8 14 9 5 5 7 5 4 5 10 9 6 5 4 7 7 7 7 7 7 7 6 5 5 7 12 18 20 21 21 22 22 23 24 25 25 26 27 27 27 28 28 29 29 29 29 28 27 28 28 30
8 7 6 6 6 6 6 6 6 5 4 5 4 5 5 4 3 2 2 2 2 2 1 2 2 3 3 2 1 3 3 4 5 4 6 8 15 3 8 3 5 10 10 5 4 7 6 6 6 7 8 8 7 6 5 4 5 6 7 13 18 20 21 22 22 22 22 22 24 25 26 27 27 28 28 29 29 29 29 29 29 29 29 28 29
7 7 6 6 6 6 6 6 6 5 5 5 4 4 4 4 4 3 2 2 2 2 3 3 3 3 3 3 3 3 3 3 2 2 4 7 12 13 10 15 14 4 8 10 8 4 6 8 9 8 8 7 6 6 5 6 6 6 7 12 18 21 22 22 22 22 22 22 23 24 25 26 27 28 29 29 30 30 29 30 31 31 32 31 30
7 7 7 7 6 6 6 6 5 5 5 5 5 5 5 4 3 3 3 3 3 3 2 2 2 3 3 4 5 5 6 4 5 4 3 6 11 13 12 9 12 17 4 5 5 9 10 8 9 7 7 7 6 6 5 6 7 8 14 17 19 20 22 22 22 22 23 23 24 24 25 26 26 27 28 29 29 30 30 30 32 33 32 31 31
7 7 7 8 7 7 6 6 6 6 6 5 4 5 5 4 3 4 3 3 3 2 2 2 2 3 3 4 5 5 6 6 4 4 4 7 7 14 13 15 15 7 7 8 7 11 8 8 7 8 9 7 6 5 5 5 6 12 11 12 17 20 22 23 24 24 24 24 23 24 25 26 27 27 28 29 29 30 31 32 33 33 33 32 32
9 10 9 10 9 8 8 8 7 6 5 5 4 5 5 5 5 4 4 3 2 2 3 3 4 4 5 4 5 5 6 4 3 3 4 5 7 12 13 8 14 19 8 7 7 3 8 10 8 6 6 6 6 4 3 4 5 9 14 10 18 18 17 19 21 23 25 25 26 26 26 26 27 27 28 28 29 30 32 34 34 33 34 34 33
13 13 11 11 8 8 7 7 6 5 5 5 5 5 5 5 4 3 3 3 2 3 3 3 3 4 3 5 5 6 5 4 3 3 4 5 7 8 13 11 10 17 16 9 5 8 2 3 3 5 5 4 4 3 4 5 7 10 15 10 9 14 18 20 23 25 27 29 30 30 28 28 27 27 27 28 29 30 31 32 33 35 37 36 34
11 9 9 10 9 8 7 7 6 6 6 5 5 5 5 4 3 3 2 2 3 3 3 3 4 4 4 5 5 5 5 4 2 3 2 4 6 7 8 15 17 12 13 16 13 9 8 8 5 4 4 4 3 2 3 4 10 16 14 9 8 15 18 23 26 29 30 32 31 30 29 28 28 28 29 30 30 30 30 30 31 33 35 37 37
8 9 9 10 9 8 7 7 7 6 6 6 6 5 4 5 3 3 3 2 3 3 4 3 4 4 4 4 3 5 4 4 3 3 4 5 5 5 6 8 10 20 15 15 15 15 1 7 0 5 2 3 3 4 5 7 6 15 14 11 11 11 18 25 29 31 31 30 31 30 30 30 31 32 32 32 32 31 31 31 32 31 31 32 34
9 9 10 8 9 9 8 8 7 6 6 6 6 5 5 4 4 3 3 3 3 3 3 4 4 3 3 4 5 5 4 2 2 3 4 3 5 5 5 6 7 10 14 18 24 12 8 3 9 1 2 7 1 3 9 9 11 13 12 11 12 13 19 29 31 29 30 30 30 30 30 31 32 34 35 34 34 33 33 33 33 33 33 33 33
10 9 10 10 9 9 8 8 7 6 6 6 6 6 5 5 4 3 3 3 3 3 3 4 4 3 4 4 4 5 2 1 2 2 2 3 4 4 5 5 5 9 10 14 23 19 12 9 6 11 4 3 10 13 8 10 14 16 13 14 13 14 25 29 29 30 31 32 32 32 33 32 31 31 31 31 31 32 32 33 33 34 34 35 35
11 11 11 10 10 9 9 8 7 7 6 6 6 6 5 5 3 4 3 3 4 4 4 4 4 4 3 4 3 2 1 1 1 2 2 3 4 4 4 5 5 6 10 11 16 27 0 16 5 1 12 15 10 10 10 9 12 17 16 13 13 20 28 22 28 30 31 32 31 31 31 32 33 33 34 34 34 35 36 36 36 36 36 36 37
11 12 12 11 11 10 9 9 8 7 7 6 7 6 6 5 5 5 4 4 4 5 4 3 3 3 2 3 3 2 1 1 1 2 3 3 3 4 4 5 5 6 8 10 15 26 19 6 17 9 6 14 11 9 12 13 11 17 13 13 12 20 17 16 27 32 31 31 32 32 32 33 33 34 34 35 36 37 37 37 38 38 37 37 38
12 12 12 12 11 10 10 9 9 8 8 7 7 6 6 5 5 4 4 4 5 4 3 4 2 2 2 3 3 2 1 2 3 3 3 3 3 5 5 5 7 6 7 10 15 21 23 11 10 14 8 10 16 7 11 13 10 7 10 11 13 15 16 13 12 22 29 30 31 32 33 34 34 34 34 34 35 36 36 37 37 37 37 36 37
13 13 12 11 10 11 10 9 9 8 8 8 7 7 6 6 5 4 5 5 4 4 3 4 2 2 2 3 4 3 2 2 3 4 4 4 4 5 6 6 7 7 6 9 12 15 24 20 14 13 12 6 17 12 10 13 15 10 11 14 12 12 12 11 13 14 27 30 32 34 34 35 34 34 34 34 35 35 35 35 35 35 36 38 38
10 12 12 12 11 11 10 10 10 9 9 8 7 7 6 6 6 5 5 5 4 4 4 4 3 3 4 4 5 2 2 4 4 4 4 5 5 6 7 6 8 8 7 8 10 13 18 20 15 16 17 10 12 15 13 11 13 15 13 14 13 11 12 12 13 13 24 30 32 33 33 33 33 34 33 33 33 34 34 34 35 35 35 35 37
13 10 11 12 11 12 11 11 10 9 9 8 7 7 7 6 6 6 5 4 4 4 4 4 4 4 4 5 4 3 3 5 5 5 5 5 6 6 7 7 8 9 8 8 11 12 14 17 18 13 15 16 13 10 9 10 12 13 13 13 11 12 15 14 13 14 19 29 31 32 32 32 33 33 34 34 33 34 34 35 35 35 36 37 37
12 11 10 10 11 11 11 12 11 10 9 9 8 7 6 6 6 5 5 4 4 5 5 5 5 5 5 5 5 4 4 6 6 6 5 7 7 7 8 8 9 9 8 10 12 14 15 19 20 17 15 14 15 14 10 13 13 11 12 15 14 14 14 15 12 12 22 31 32 33 32 32 33 32 31 31 33 33 33 33 34 34 35 37 40
11 11 12 11 11 11 10 10 9 9 9 9 8 8 7 6 5 4 4 4 5 5 5 5 5 5 5 6 5 5 5 6 6 6 6 8 7 8 10 10 10 10 12 13 14 14 16 19 18 19 17 15 18 17 13 11 15 14 14 14 14 13 12 14 12 11 10 10 10 13 20 23 27 31 33 34 34 33 33 32 33 33 37 36 39
12 11 10 10 8 9 9 8 9 9 8 7 7 6 6 6 5 5 5 5 5 5 5 6 6 6 6 6 6 6 7 7 7 7 8 9 10 12 11 12 11 13 14 13 13 14 15 17 18 19 20 17 17 23 14 12 15 15 15 16 19 12 10 12 15 9 8 13 18 27 26 25 29 26 29 33 35 35 35 34 34 35 38 39 40
11 11 11 10 9 8 8 8 7 7 8 7 6 6 6 6 5 5 5 5 6 6 6 6 7 7 7 7 7 7 7 7 7 8 9 10 11 12 11 11 12 13 14 13 12 13 14 16 15 18 14 18 11 18 15 14 18 15 13 14 18 20 14 11 12 12 13 12 16 14 18 20 21 26 31 32 33 32 30 28 31 36 39 40 39
8 9 9 10 11 10 8 9 9 7 7 7 6 7 7 6 6 6 6 6 6 6 6 7 7 7 7 7 8 7 8 12 16 15 15 14 10 9 9 10 10 11 11 9 11 13 15 14 16 15 16 15 15 14 18 9 18 16 20 13 15 16 14 18 12 11 13 13 15 14 14 10 13 13 12 12 12 17 20 29 27 33 36 37 38
10 10 10 10 10 11 11 9 8 6 6 5 9 14 11 7 7 5 4 4 6 7 7 7 7 7 8 8 7 12 14 16 17 19 20 20 22 17 13 11 11 11 12 12 11 9 10 11 12 12 13 14 16 14 16 15 15 16 16 18 19 16 14 18 20 12 11 13 14 14 14 9 10 12 9 11 13 14 13 14 14 22 26 32 33
11 10 10 11 10 10 11 10 9 7 6 6 14 14 14 15 9 7 6 6 7 8 7 7 7 7 7 7 8 9 11 13 14 19 20 21 22 23 25 24 20 16 13 14 13 12 12 14 13 14 14 18 18 19 16 20 13 18 16 16 17 15 16 17 22 13 7 12 11 13 13 6 5 11 13 13 12 12 13 14 25 31 33 33 35
9 8 10 10 10 10 7 7 8 7 7 11 15 15 15 15 13 8 7 7 7 7 7 7 7 7 7 7 7 6 6 9 9 11 15 20 22 24 25 25 25 26 25 18 15 14 14 13 15 16 16 16 20 19 16 17 16 17 19 16 19 17 19 21 18 16 5 6 7 10 16 13 7 12 15 14 13 12 15 25 33 34 35 36 35
9 11 10 10 8 7 8 9 9 8 7 13 15 15 14 14 15 13 7 7 7 7 7 7 8 7 6 7 7 8 8 16 13 12 12 14 20 25 25 26 26 27 25 28 28 22 17 17 18 20 17 14 14 18 18 15 18 19 16 17 14 16 16 19 19 17 15 8 13 15 19 20 6 11 16 13 12 12 16 23 31 32 34 33 32
11 9 6 7 8 8 8 9 8 8 8 12 15 15 13 14 14 13 5 7 7 7 8 6 5 7 8 7 8 8 9 10 11 13 13 14 13 12 12 12 12 18 24 27 29 31 26 19 18 20 19 18 18 19 18 19 19 16 14 17 15 17 16 20 23 22 18 7 13 12 16 21 7 11 18 15 11 14 14 21 30 32 33 32 31
13 13 13 11 10 10 9 8 7 7 6 13 14 14 13 14 15 13 6 7 6 6 4 4 7 8 8 8 9 10 10 11 11 13 12 12 11 10 12 14 14 12 12 14 14 14 15 16 18 21 22 21 19 21 21 17 19 18 17 19 20 19 17 20 20 21 17 11 11 11 16 22 7 11 17 15 13 13 14 18 26 31 32 32 30
8 8 8 8 11 11 10 9 8 6 6 14 13 13 14 14 15 8 5 7 6 3 3 7 7 7 7 8 9 9 10 12 15 21 19 14 12 13 14 13 13 14 15 16 23 25 22 19 17 15 14 17 25 24 23 20 15 16 18 19 17 15 15 15 18 15 17 10 9 12 13 18 10 10 16 12 11 14 13 14 24 33 32 31 31
12 11 12 11 10 9 8 7 7 7 6 11 13 14 14 14 11 5 5 3 4 6 6 6 6 7 7 8 9 9 11 11 16 20 21 20 13 13 15 16 15 13 12 10 20 25 26 27 31 33 36 36 36 38 39 40 31 24 18 18 15 11 13 14 17 14 16 12 9 12 12 17 12 10 15 11 11 13 15 16 16 22 30 30 30
13 12 8 8 8 6 9 9 8 8 7 9 14 13 13 14 11 5 4 5 4 4 5 6 5 6 8 13 12 10 12 12 17 20 21 18 12 13 13 14 14 13 13 13 12 13 24 29 32 32 32 32 33 35 35 35 36 29 17 19 18 13 16 15 16 11 12 9 8 7 11 14 10 9 13 13 14 12 15 16 17 16 24 25 29
12 12 10 8 7 6 7 8 13 9 7 8 13 13 14 14 10 5 5 3 5 5 5 6 6 6 7 7 12 13 13 14 19 19 21 18 12 11 12 14 15 16 15 16 16 16 15 14 15 16 17 23 22 20 24 37 37 33 24 19 16 16 17 14 16 15 16 12 6 8 14 18 16 17 13 12 13 11 10 12 13 14 12 12 14
Wind_Direction
132 139 129 123 114 107 99 100 91 80 77 67 75 55 31 12 1 356 360 2 357 348 342 334 332 333 336 328 327 323 320 317 315 310 305 303 305 306 310 312 315 317 319 321 321 322 324 325 326 327 328 327 327 325 324 323 322 322 321 319 316 313 308 302 296 295 294 293 293 288 281 273 262 249 244 242 242 239 234 230 224 221 221 216 207
135 138 124 123 111 104 95 96 94 88 78 70 71 79 40 9 6 11 14 8 4 345 347 335 334 334 334 328 322 319 318 318 315 313 313 320 323 318 316 313 313 316 319 319 320 322 324 326 328 328 329 328 328 328 328 327 326 326 325 324 321 317 315 312 306 299 297 294 292 291 288 280 271 266 252 241 241 242 242 236 224 225 224 225 217
128 134 122 122 114 109 109 102 86 81 82 60 42 54 41 37 22 18 23 15 358 345 347 338 333 332 327 324 314 314 312 308 304 308 318 322 323 321 316 315 312 312 314 317 319 321 323 325 326 328 329 328 328 328 329 328 328 328 327 326 324 320 318 316 314 308 302 299 296 293 289 283 276 270 264 257 244 240 243 241 233 225 215 216 220
130 129 126 123 122 117 115 100 108 86 74 67 41 41 44 19 22 37 35 28 357 344 341 341 327 316 315 313 310 311 307 304 302 306 309 312 316 314 310 307 308 307 310 313 318 321 322 324 326 327 327 328 328 328 328 328 327 327 327 326 325 324 321 317 314 313 310 305 300 294 290 285 278 274 270 260 257 248 240 241 239 230 224 223 228
141 138 132 130 129 120 105 114 116 98 63 60 56 33 33 22 17 26 24 22 8 343 340 329 314 309 308 302 307 302 297 296 295 298 300 302 304 304 301 301 300 305 308 310 311 316 318 320 324 325 325 328 330 331 330 329 327 326 326 326 326 325 325 323 319 314 309 308 306 301 295 289 281 274 271 268 256 255 254 246 239 237 232 228 220
142 134 131 133 127 124 119 120 122 95 73 68 48 49 38 42 22 36 11 15 5 345 343 330 314 304 301 296 299 291 293 293 289 286 288 290 293 292 291 289 291 298 303 305 306 307 308 312 317 319 322 326 329 329 328 327 327 327 327 327 326 326 327 327 325 320 315 308 305 305 304 300 295 285 271 268 268 259 253 255 247 237 234 228 219
145 136 137 133 132 122 118 140 127 103 90 102 107 46 80 55 46 29 16 11 5 344 333 309 306 308 306 301 293 295 290 287 290 290 289 291 292 283 281 278 282 285 290 292 300 300 297 299 305 311 315 320 325 327 326 325 326 327 327 327 328 327 328 328 328 326 321 315 310 307 306 306 305 301 284 265 264 260 256 252 252 250 237 230 224
141 138 134 137 133 128 138 139 129 115 123 106 95 95 92 53 11 45 29 5 356 336 334 311 303 300 297 295 289 290 290 290 288 285 282 283 274 274 270 273 273 276 275 278 281 286 286 290 294 299 306 313 321 324 323 324 325 325 326 327 328 330 330 330 329 326 323 320 317 312 308 307 305 304 302 286 265 259 258 258 258 251 248 243 234
143 140 139 142 135 133 144 141 142 140 140 131 115 157 104 83 19 44 57 358 352 323 319 311 307 302 301 296 294 294 293 292 285 282 289 275 278 273 274 268 263 259 262 265 272 278 289 286 288 290 295 302 315 319 321 325 324 323 324 326 329 331 331 330 328 326 323 319 316 313 310 307 304 303 300 300 284 265 256 255 254 254 251 246 245
149 146 141 149 145 140 147 147 146 144 143 133 171 144 100 108 87 65 51 20 339 328 314 312 308 307 305 302 300 294 288 288 282 287 280 283 285 286 278 280 279 274 265 261 260 274 283 290 292 296 300 298 311 317 323 326 323 321 323 329 332 330 328 326 323 322 325 325 326 329 327 320 309 301 300 298 296 284 270 260 256 250 244 246 247
155 152 150 153 151 149 148 159 150 147 139 146 142 109 98 93 104 160 131 59 267 285 290 298 307 302 300 298 294 290 284 277 282 285 280 277 284 282 293 283 281 281 283 282 291 297 294 291 290 288 290 297 311 324 328 323 322 329 329 326 327 325 323 323 323 322 320 319 321 322 321 319 318 313 303 295 295 295 286 270 262 256 250 242 244
161 161 157 162 159 157 152 154 151 144 147 149 174 148 131 101 84 16 340 28 194 262 300 314 300 295 287 287 280 285 284 277 287 281 301 303 295 300 296 285 278 282 285 289 311 308 306 300 296 297 300 314 320 323 321 318 337 335 328 327 325 320 320 323 325 324 322 322 323 323 322 320 317 313 309 305 293 289 292 287 270 261 253 248 245
167 162 166 163 158 153 149 160 160 160 166 181 175 167 155 146 144 118 12 358 5 74 337 327 322 309 278 273 293 271 273 282 281 314 314 314 310 313 294 290 292 296 293 314 312 314 320 322 313 307 314 312 310 315 311 334 341 334 328 322 316 316 321 321 321 319 318 318 319 318 315 313 312 310 310 309 307 298 288 287 288 265 256 252 247
169 167 166 165 160 158 162 172 171 174 177 176 169 156 142 122 129 63 66 33 307 46 343 11 13 2 336 331 309 290 269 313 306 31 348 319 310 310 299 292 293 288 307 339 338 338 328 313 307 309 308 311 312 299 300 322 329 328 323 314 312 312 312 312 311 312 312 311 311 311 310 308 307 307 307 310 311 311 307 295 283 284 270 257 251
172 171 168 173 169 163 171 172 173 168 161 167 153 146 141 134 118 118 35 20 332 358 39 70 358 331 293 328 336 349 338 359 6 349 315 303 306 303 298 303 293 300 312 333 327 327 319 309 307 308 309 304 293 286 298 305 316 318 307 298 302 306 306 305 307 308 308 307 305 305 305 306 306 305 304 305 307 307 305 306 303 289 280 266 254
176 172 171 173 168 167 166 169 179 174 169 164 158 147 121 102 102 101 108 27 32 317 64 63 75 10 11 29 300 1 322 338 329 312 315 301 2 325 317 304 306 318 330 330 327 329 309 304 299 299 296 292 288 293 298 308 303 294 281 285 298 301 303 303 303 302 300 299 300 300 301 300 302 303 304 304 304 303 302 303 300 303 293 283 267
174 175 173 173 168 164 166 174 169 175 163 159 157 159 145 136 127 114 122 148 290 259 325 74 52 90 135 355 344 6 227 305 336 305 347 314 314 302 299 291 303 313 323 307 308 299 298 301 300 300 298 295 297 298 299 295 290 285 300 307 307 305 301 297 296 296 295 295 297 299 299 299 298 298 300 301 300 298 297 297 300 300 300 296 289
177 175 174 170 169 168 168 167 172 172 166 164 155 129 122 124 148 136 136 158 182 231 280 27 110 83 179 175 187 237 316 320 345 302 346 301 292 302 297 292 304 309 293 298 297 295 294 293 296 296 292 291 290 290 289 286 295 306 309 304 297 294 292 291 290 291 294 297 298 297 297 296 296 295 295 294 295 294 292 293 296 298 298 297 296
180 177 176 175 168 168 169 172 173 173 169 149 149 148 142 141 134 119 150 151 134 215 266 281 2 220 195 221 258 262 223 295 265 308 312 319 14 316 311 315 299 290 292 281 289 292 289 294 297 293 288 282 282 283 287 294 300 301 296 291 287 287 287 288 291 293 295 295 295 295 296 296 295 294 293 292 292 291 290 291 291 292 292 292 293
174 180 177 172 168 167 167 168 170 178 163 161 155 150 127 114 118 128 125 137 150 178 231 202 232 280 90 314 289 288 293 274 252 257 278 298 294 283 261 282 302 291 290 298 289 278 296 298 293 289 281 277 276 277 282 285 285 285 283 280 286 288 290 292 292 292 292 293 293 294 295 295 294 292 291 290 290 288 287 287 287 287 288 290 289
177 175 177 171 168 168 167 169 170 177 163 155 153 144 140 134 120 117 141 143 151 173 152 199 167 236 316 298 280 257 277 261 273 263 278 297 293 270 301 255 274 290 293 277 291 299 290 287 284 283 283 284 279 273 278 290 288 287 281 282 288 293 294 294 293 292 291 292 293 293 292 292 293 293 291 290 288 287 286 285 285 286 286 286 286
178 175 172 173 168 167 170 173 173 172 162 161 152 136 127 127 138 147 152 166 180 172 193 210 207 224 204 236 272 297 291 281 244 309 269 234 274 303 309 314 310 277 299 291 284 268 285 295 289 280 277 274 277 280 285 285 288 284 278 283 294 297 298 296 295 294 295 295 294 292 292 292 292 293 292 289 286 285 285 285 285 284 284 282 281
169 177 173 169 171 171 171 174 169 168 158 155 161 147 139 134 141 151 171 180 193 187 207 203 199 216 227 213 234 238 239 255 277 284 275 293 305 296 303 292 291 305 262 249 281 290 290 276 275 277 275 276 275 281 280 279 284 283 288 294 298 299 300 300 300 300 298 297 296 295 293 291 290 289 289 288 286 284 283 283 283 282 280 279 279
172 170 178 175 170 174 172 166 169 165 163 163 157 142 137 135 142 154 157 158 160 161 176 205 216 228 233 229 235 229 235 237 252 271 289 295 300 297 305 315 305 266 296 281 253 259 243 252 258 270 275 279 277 270 279 288 285 292 296 293 300 303 303 303 302 300 297 295 294 294 293 292 291 290 288 287 286 284 283 282 281 280 278 277 277
181 178 185 178 172 172 173 172 170 169 164 156 154 135 130 131 139 140 145 155 172 178 200 218 212 221 226 235 224 229 233 229 235 264 288 296 302 302 297 307 295 302 300 304 308 233 256 258 237 249 241 258 276 277 286 288 290 297 303 301 302 305 310 312 312 311 309 307 304 300 297 294 291 289 287 284 282 281 280 279 278 276 276 275 275
178 186 180 173 171 174 168 166 164 161 157 154 142 134 129 132 142 147 158 178 161 185 206 223 221 225 221 230 237 237 245 244 243 267 283 300 293 289 301 298 287 295 302 296 271 309 204 187 231 223 250 247 243 291 303 302 304 299 300 308 317 318 314 312 310 308 306 305 303 299 295 293 294 295 295 292 290 289 283 278 275 276 273 272 274
180 175 164 168 168 162 164 161 161 156 149 144 137 128 128 124 136 152 152 161 186 187 215 214 230 238 237 226 234 242 243 236 227 243 234 249 265 283 302 310 309 293 301 305 302 260 264 277 214 232 196 260 267 253 291 299 300 306 316 318 311 312 310 307 304 302 299 296 292 291 292 293 291 291 291 290 289 290 291 291 286 277 274 272 270
165 156 167 163 162 160 157 157 154 150 148 142 136 131 130 130 134 137 158 164 183 204 220 215 233 235 237 240 238 253 247 240 232 235 233 246 252 271 277 292 302 307 310 299 298 294 333 288 136 205 203 161 290 296 301 307 310 310 312 306 303 301 303 303 300 296 293 289 287 285 285 286 288 289 288 288 287 286 287 286 285 286 286 287 281
160 160 156 157 155 154 153 153 153 151 146 145 138 135 135 139 150 158 176 188 189 216 219 222 232 225 234 235 235 247 247 227 239 230 243 250 253 252 257 260 283 287 302 310 297 292 309 104 321 210 17 314 295 308 320 309 303 304 300 299 300 301 301 299 295 293 293 292 290 287 287 286 284 284 284 283 282 283 283 281 281 280 279 278 282
158 159 152 152 151 152 151 153 154 150 150 143 137 136 133 142 152 170 185 189 214 228 225 223 233 216 232 240 237 245 246 230 234 253 249 252 255 257 256 257 247 265 283 292 293 291 302 285 175 291 313 304 320 309 299 299 306 308 301 299 296 295 297 296 295 293 291 289 287 286 285 284 284 284 284 282 281 281 282 283 280 278 275 275 272
152 151 152 152 153 155 153 155 153 153 147 144 140 138 141 149 161 176 191 190 208 226 229 220 230 209 222 234 236 242 247 238 256 265 269 263 266 268 255 264 248 253 274 278 287 286 143 293 285 200 309 308 305 302 308 296 301 302 299 296 295 295 295 293 293 292 290 288 287 285 285 286 285 285 284 283 282 282 282 283 281 278 275 271 270
157 155 155 157 157 157 159 155 156 153 150 149 147 145 145 158 169 180 197 193 212 221 227 213 207 210 229 250 255 258 261 264 267 268 265 263 264 257 262 260 262 264 271 271 268 279 288 273 296 303 303 304 309 308 302 301 300 298 293 292 296 302 300 292 288 285 285 286 286 285 285 284 283 284 283 281 280 278 278 278 277 274 273 272 268
156 158 159 160 160 159 157 160 158 158 154 155 152 149 153 164 172 183 195 195 208 223 211 233 218 213 225 239 256 256 257 278 270 269 259 266 263 262 261 260 262 260 256 264 270 280 288 283 286 299 319 321 299 309 303 298 302 304 301 302 304 291 284 277 278 281 285 285 285 284 283 283 283 282 281 279 278 276 275 275 274 272 272 273 271
161 160 160 160 159 157 157 158 158 156 158 155 155 153 161 163 174 174 186 193 207 217 209 224 210 209 228 249 256 257 262 265 274 264 269 267 262 264 255 255 259 256 251 260 270 276 283 298 294 295 293 308 293 306 304 308 305 305 298 296 287 281 282 287 284 281 282 284 283 283 282 283 282 281 280 279 278 276 275 274 272 271 270 270 271
163 162 161 160 160 157 157 159 157 160 159 157 157 155 161 165 173 183 184 192 198 205 218 228 227 226 241 249 256 238 260 267 262 263 260 261 258 258 260 255 258 255 252 252 267 273 280 288 299 301 297 295 280 297 300 294 293 297 289 285 286 284 272 270 276 276 281 283 283 282 282 282 282 282 281 280 280 279 276 274 273 271 270 270 268
162 163 160 159 158 160 159 160 161 159 158 155 155 156 158 163 169 170 176 185 199 211 222 229 224 229 242 253 251 229 241 250 257 257 249 250 249 252 256 254 252 251 249 248 250 266 276 281 286 284 291 298 289 281 281 275 280 286 286 282 264 269 278 274 267 273 279 282 282 282 282 283 283 282 281 280 279 278 275 273 272 272 270 268 268
163 157 161 161 160 161 165 165 161 159 156 153 153 155 158 162 171 169 180 189 203 213 220 223 237 236 242 242 245 228 241 253 258 255 251 251 250 252 256 254 250 249 240 240 243 245 255 263 275 278 282 281 286 289 291 296 287 275 274 277 278 272 271 270 267 267 275 279 280 281 282 281 280 280 280 282 282 278 275 273 272 271 270 269 267
161 165 162 166 167 165 160 158 154 151 151 154 157 159 157 154 158 173 176 193 208 217 223 227 232 239 239 242 235 235 235 246 252 254 254 253 254 252 250 250 248 246 240 239 241 244 252 262 267 279 277 278 290 281 286 282 287 291 287 280 272 266 269 276 268 267 265 265 269 270 275 276 279 280 282 283 281 280 279 276 275 274 271 268 264
163 164 166 160 159 152 150 148 153 151 148 147 148 148 147 151 161 176 188 203 216 220 228 234 238 237 241 240 240 237 242 245 251 252 256 256 255 254 251 254 252 256 258 253 243 244 246 258 264 267 276 275 280 286 282 278 275 279 289 293 291 278 250 266 278 266 255 268 267 273 276 279 279 279 278 279 279 278 276 274 273 272 271 269 266
168 166 162 156 149 146 149 147 143 139 140 143 146 149 152 159 168 183 196 208 221 226 227 236 238 241 237 238 238 240 239 240 242 247 250 260 264 263 259 253 254 253 256 251 242 248 256 257 256 267 262 275 270 274 274 284 281 273 272 280 284 292 289 265 254 275 274 267 274 273 271 270 273 275 277 277 277 277 277 280 282 282 276 266 263
163 160 155 151 148 145 142 144 143 142 140 156 160 159 161 169 170 186 196 203 218 222 233 240 241 239 242 247 254 251 248 256 259 263 264 263 258 259 258 259 261 258 252 240 243 251 254 253 260 260 265 267 273 272 281 259 270 273 288 268 273 274 280 283 267 246 262 270 272 272 265 256 267 265 266 272 278 288 292 290 287 286 285 272 261
159 157 154 154 153 151 148 146 141 139 156 154 177 179 177 170 175 180 192 196 211 226 234 238 242 244 249 253 254 262 266 269 272 274 274 275 274 273 274 269 265 264 266 265 259 249 244 250 249 255 255 256 265 262 268 267 273 272 277 281 277 280 281 279 278 265 265 265 266 265 265 255 259 269 266 277 278 278 276 279 276 280 282 285 283
160 158 154 152 153 152 151 151 151 155 163 172 184 188 188 187 180 183 185 202 210 223 229 238 245 250 257 264 267 269 272 274 275 275 276 276 275 273 274 275 276 277 279 277 273 268 268 268 271 266 263 270 272 276 276 281 276 281 280 283 282 286 286 291 290 291 217 250 255 265 266 234 266 284 279 270 272 272 265 266 276 278 278 277 274
159 151 156 158 152 153 147 141 152 162 168 182 184 187 191 196 188 179 190 201 213 222 229 235 245 258 264 268 271 272 266 266 265 265 267 271 274 276 278 279 279 279 277 277 280 280 276 279 277 272 271 262 277 277 276 280 281 280 278 273 278 281 284 285 279 282 292 215 257 287 287 275 233 266 271 265 264 259 269 278 279 277 275 270 268
152 161 161 157 152 139 145 152 161 168 169 184 185 187 192 197 202 195 189 206 215 223 230 238 247 254 266 274 275 273 272 275 277 270 266 265 269 275 279 281 281 280 280 279 278 277 281 277 277 279 275 281 276 273 275 276 277 276 275 272 268 268 269 273 275 279 259 268 295 286 284 282 246 268 268 267 264 269 275 274 274 272 269 267 266
162 159 141 144 149 149 157 159 160 166 170 186 187 189 192 199 205 208 185 204 218 228 231 229 240 265 269 266 271 273 273 270 269 272 272 269 268 265 266 267 271 273 278 280 280 281 280 277 275 273 274 271 271 275 272 273 273 268 270 267 262 262 259 261 268 268 270 232 253 273 276 273 260 271 272 271 265 271 269 268 269 269 266 264 261
166 167 164 161 165 162 163 162 156 164 170 183 186 188 193 201 205 206 191 203 212 205 210 259 262 257 261 263 267 272 273 274 275 275 279 285 286 282 276 272 271 277 274 272 259 249 257 258 260 263 269 269 269 271 271 266 257 258 256 258 260 257 258 264 264 263 269 242 223 243 262 274 272 265 269 272 274 264 261 263 269 270 264 258 260
159 154 162 162 160 163 164 162 154 150 163 180 183 189 197 201 203 204 194 198 195 213 222 235 247 254 259 264 268 272 273 277 280 285 289 291 288 284 283 281 275 269 268 269 279 283 284 280 275 271 265 266 271 271 271 269 261 259 260 260 259 256 258 257 257 264 260 246 207 233 250 267 265 258 269 262 255 267 268 267 270 271 265 258 260
163 169 168 168 167 159 153 146 144 147 161 182 186 191 199 202 203 192 190 189 209 213 225 230 245 257 262 265 268 273 278 281 287 290 291 294 292 288 282 278 276 277 279 274 287 288 291 292 291 289 288 288 288 287 286 286 285 284 281 275 258 242 245 250 259 259 261 261 233 225 248 264 261 256 266 263 261 267 271 268 266 262 259 258 258
170 170 157 154 157 152 154 157 157 152 157 181 186 192 198 200 200 182 198 196 202 219 226 231 238 244 254 267 272 278 285 285 287 290 293 297 288 281 281 288 294 291 288 295 299 294 290 286 286 287 288 290 293 293 293 293 292 290 286 279 280 282 271 266 271 268 275 258 233 199 252 254 270 248 265 270 267 248 258 262 263 254 249 249 251
167 165 162 144 133 140 155 153 165 158 148 174 185 191 196 201 202 174 182 184 215 224 230 241 241 251 250 258 280 284 283 285 289 294 296 299 295 302 307 302 298 298 301 306 300 293 292 300 300 305 301 297 294 290 287 287 285 282 277 273 277 269 268 266 265 273 274 260 216 225 254 261 258 258 251 267 265 258 242 264 262 258 247 239 244